[[{"header":{"parameterUnit":"m.s-1","parameterCategory":1,"la1":30.2991,"la2":30.254,"lo1":-89.0895,"lo2":-89.0444,"dy":0.0017,"dx":0.0017,"nx":28,"ny":28,"refTime":"2024-07-18T09:00:00:Z","depth":0,"parameterNumber":2,"parameterNumberName":"U-component_of_WINDS"},"data":[0,0,0,0,0,0,0,0,0,0,0,0,0,0,0,0,0,0,0,0,0,0,0,0,0,0,0,0,0,0,0,0,0,0,0,0,0,0,0,0,0,0,0,0,0,0,0,0,0,0,0,0,0,0,0,0,0,0,3.0145,3.0145,0,3.0202,3.0203,3.0204,3.0146,3.0144,3.0142,3.014,3.0196,3.0199,3.0203,0,0,0,0,0,0,0,0,0,0,0,0,0,2.998,2.9984,3.0145,3.0145,3.0146,3.0202,3.0203,3.0204,3.0147,3.0144,3.0141,3.0139,3.0195,3.0199,3.0203,0,0,0,0,0,0,0,0,0,0,0,0,0,3.0046,2.9985,3.0144,3.0124,3.0123,3.0202,3.0203,3.0204,3.0147,3.0144,3.014,3.0137,3.0193,3.0199,3.0204,3.0305,0,0,3.022,3.0223,0,0,0,0,0,0,0,0,3.0042,3.0052,3.0127,3.0126,3.0125,3.0164,3.0166,3.0238,3.0148,3.0138,3.014,3.0136,3.0188,3.0193,3.0211,3.0307,3.031,3.0221,3.0224,3.0226,3.0228,0,0,0,0,0,0,0,3.0038,3.0049,3.0167,3.0128,3.0127,3.0111,3.0117,3.0179,3.0181,3.0139,3.0135,3.0142,3.0186,3.0206,3.0212,3.0311,3.0221,3.0225,3.0229,3.0231,3.0488,3.0492,0,0,0,0,0,0,3.0036,3.0046,3.0165,3.0169,3.0075,3.0117,3.0123,3.0155,3.018,3.0181,3.0145,3.0139,3.0199,3.0206,3.0214,3.0331,3.0226,3.0231,3.0235,3.0485,3.0489,3.0493,0,0,0,0,0,0,3.0033,3.0047,3.0163,3.0106,3.012,3.0123,3.0159,3.0157,3.0177,3.0185,3.0185,3.0165,3.0197,3.0207,3.0282,3.0332,3.0234,3.0239,3.048,3.0486,3.0491,3.0567,0,0,0,0,0,0,3.0028,3.0047,3.0086,3.0108,3.0123,3.0232,3.0162,3.0161,3.0187,3.018,3.0204,3.0205,3.0195,3.0274,3.0287,3.0338,3.0243,3.0476,3.0483,3.0489,3.056,3.0574,3.0587,0,0,0,0,0,3.0023,3.0105,3.0088,3.0103,3.0173,3.0235,3.0243,3.0231,3.0192,3.023,3.0235,3.0204,3.0325,3.0282,3.0297,3.0349,3.0472,3.0481,3.0489,3.0554,3.0572,3.0586,0,0,0,0,0,0,3.0089,3.0108,3.0089,3.0182,3.0207,3.0225,3.0273,3.025,3.0286,3.0278,3.026,3.0266,3.0345,3.0355,3.0308,3.0447,3.0392,3.0403,3.0437,3.0454,3.0467,3.0461,3.0247,0,0,0,0,0,3.0115,3.0164,3.0178,3.0258,3.0272,3.0271,3.0297,3.0285,3.031,3.032,3.033,3.0355,3.0398,3.0427,3.0467,3.0562,3.0564,3.0605,3.0618,3.0629,3.0638,3.0686,3.0703,3.0519,3.0519,3.0519,0,0,3.0167,3.0184,3.0216,3.0272,3.029,3.0339,3.028,3.0336,3.0372,3.0328,3.0399,3.0408,3.0434,3.0518,3.0556,3.0529,3.069,3.064,3.0648,3.0651,3.0696,3.0713,3.0728,3.0525,3.0524,3.0523,0,0,3.0288,3.0308,3.0374,3.0394,3.0422,3.0421,3.0437,3.0458,3.0462,3.0533,3.0501,3.0543,3.0619,3.0637,3.0657,3.0784,3.0755,3.0797,3.0866,3.0912,3.0926,3.0939,3.0981,3.0997,3.0807,3.0807,3.0807,0,3.035,3.0425,3.0412,3.0469,3.0493,3.0457,3.0523,3.0542,3.0582,3.0599,3.0568,3.0661,3.0676,3.0763,3.0793,3.0812,3.0827,3.0793,3.0926,3.0938,3.095,3.0989,3.1006,3.0812,3.0811,3.0811,3.081,0,3.0497,3.055,3.0601,3.064,3.067,3.0732,3.0726,3.0758,3.0743,3.0744,3.0816,3.0833,3.0874,3.0895,3.0881,3.0979,3.0961,3.0929,3.0873,3.0972,3.1009,3.1024,3.0819,3.0817,3.0816,3.0814,0,0,3.0661,3.0691,3.071,3.0726,3.0754,3.0793,3.0853,3.0894,3.092,3.0949,3.0996,3.106,3.103,3.1052,3.104,3.1081,3.1176,3.1044,3.1044,3.1065,3.128,3.1302,3.132,3.1159,3.1162,3.1164,3.1277,0,3.078,3.0883,3.0872,3.097,3.1016,3.0982,3.1033,3.1055,3.1057,3.1096,3.1098,3.1142,3.1101,3.1114,3.1153,3.1156,3.1219,3.1148,3.1199,3.1201,3.1191,3.134,3.1363,3.1469,3.1292,3.1294,3.1296,0,3.0933,3.0966,3.1068,3.1087,3.1106,3.1152,3.1187,3.1226,3.1249,3.1247,3.1272,3.1252,3.1309,3.1255,3.1331,3.1284,3.1304,3.1309,3.1312,3.1314,3.1253,3.1342,3.1503,3.1518,3.1319,3.1317,3.1316,0,3.1037,3.1108,3.1177,3.1193,3.1217,3.125,3.1261,3.1281,3.1305,3.1336,3.1352,3.1389,3.1409,3.1437,3.1427,3.1389,3.1505,3.145,3.1503,3.1503,3.1526,3.1525,3.169,3.1546,3.1545,3.1545,3.1545,0,3.1169,3.1232,3.1224,3.1267,3.1335,3.1322,3.139,3.1397,3.1414,3.1456,3.1429,3.1468,3.1455,3.1493,3.1486,3.1548,3.1558,3.1557,3.1554,3.1558,3.1557,3.1568,3.1559,3.1549,3.1548,3.1547,3.1547,0,3.1296,3.1294,3.1367,3.1384,3.1389,3.1439,3.1452,3.1491,3.1491,3.1544,3.1556,3.1556,3.1599,3.1593,3.1641,3.1636,3.1713,3.1703,3.1705,3.1701,3.1753,3.1747,3.1928,3.195,3.1795,3.1797,3.1798,0,3.1379,3.1427,3.1448,3.1474,3.1488,3.1531,3.1556,3.1544,3.157,3.1599,3.1634,3.1675,3.1706,3.1777,3.178,3.1816,3.1804,3.1865,3.1809,3.181,3.1801,3.1797,3.18,3.1875,3.1877,3.1878,3.188,0,3.1526,3.1522,3.1559,3.1595,3.1625,3.1654,3.1679,3.1701,3.1692,3.1723,3.1766,3.1791,3.184,3.1879,3.1913,3.1923,3.1899,3.1898,3.1911,3.1914,3.1912,3.191,3.1732,3.1893,3.1891,3.189,3.189,3.1889,3.1631,3.167,3.1691,3.1732,3.175,3.1774,3.181,3.1815,3.1851,3.189,3.1881,3.193,3.1949,3.1991,3.2005,3.2042,3.2019,3.2039,3.2044,3.2048,3.2053,3.1909,3.2048,3.2048,3.2048,3.2047,3.2047,0,3.1772,3.1784,3.1822,3.1858,3.189,3.1866,3.1892,3.192,3.1963,3.1984,3.2016,3.2065,3.2103,3.2109,3.2145,3.2173,3.2162,3.2182,3.2178,3.218,3.2073,3.2056,3.219,3.219,3.219,3.219,3.219,3.219,3.1849,3.1914,3.1912,3.1984,3.1994,3.2042,3.2059,3.2079,3.2095,3.2151,3.2183,3.2187,3.2201,3.2238,3.2271,3.2271,3.2284,3.2308,3.2304,3.2203,3.2188,3.2175,3.2158,3.2311,3.2312,3.2408,3.2408,3.2409]},{"header":{"parameterUnit":"m.s-1","parameterCategory":1,"la1":30.2991,"la2":30.254,"lo1":-89.0895,"lo2":-89.0444,"dy":0.0017,"dx":0.0017,"nx":28,"ny":28,"refTime":"2024-07-18T09:00:00:Z","depth":0,"parameterNumber":3,"parameterNumberName":"V-component_of_WINDS"},"data":[0,0,0,0,0,0,0,0,0,0,0,0,0,0,0,0,0,0,0,0,0,0,0,0,0,0,0,0,0,0,0,0,0,0,0,0,0,0,0,0,0,0,0,0,0,0,0,0,0,0,0,0,0,0,0,0,0,0,1.7806,1.7807,0,1.7869,1.7869,1.787,1.7818,1.7816,1.7814,1.7812,1.7873,1.7876,1.788,0,0,0,0,0,0,0,0,0,0,0,0,0,1.7636,1.764,1.7806,1.7807,1.7808,1.7869,1.7869,1.787,1.7819,1.7816,1.7813,1.7811,1.7872,1.7876,1.788,0,0,0,0,0,0,0,0,0,0,0,0,0,1.7706,1.7641,1.7806,1.7789,1.7788,1.7868,1.787,1.7871,1.7819,1.7816,1.7813,1.781,1.787,1.7876,1.7881,1.798,0,0,1.7898,1.79,0,0,0,0,0,0,0,0,1.7702,1.7712,1.7791,1.779,1.779,1.7832,1.7832,1.7907,1.782,1.7807,1.7812,1.7808,1.7862,1.7868,1.7887,1.7983,1.7985,1.7898,1.7902,1.7904,1.7905,0,0,0,0,0,0,0,1.7697,1.7709,1.7831,1.7792,1.7791,1.7777,1.7783,1.7846,1.7852,1.7808,1.7805,1.7813,1.7861,1.7881,1.7888,1.7986,1.7898,1.7903,1.7906,1.7908,1.8164,1.8167,0,0,0,0,0,0,1.7694,1.7705,1.7829,1.7833,1.7737,1.7783,1.779,1.7822,1.7851,1.7853,1.7816,1.781,1.7874,1.7881,1.789,1.8006,1.7904,1.7909,1.7912,1.816,1.8164,1.8168,0,0,0,0,0,0,1.7691,1.7706,1.7826,1.7768,1.7782,1.7789,1.7826,1.7825,1.7845,1.7857,1.7857,1.7836,1.7871,1.7882,1.7957,1.8007,1.7911,1.7916,1.8156,1.8161,1.8166,1.824,0,0,0,0,0,0,1.7686,1.7705,1.7744,1.7769,1.7786,1.7895,1.7829,1.7828,1.7855,1.7849,1.7876,1.7877,1.787,1.795,1.7963,1.8013,1.7921,1.8152,1.8158,1.8165,1.8233,1.8247,1.8259,0,0,0,0,0,1.7681,1.7762,1.7746,1.7762,1.7835,1.7898,1.7907,1.7897,1.786,1.7898,1.7905,1.7876,1.8,1.7958,1.7972,1.8025,1.8148,1.8156,1.8164,1.8227,1.8244,1.8258,0,0,0,0,0,0,1.7742,1.7765,1.7748,1.7841,1.7868,1.7889,1.7937,1.7916,1.7954,1.7946,1.7931,1.7938,1.8017,1.8028,1.7981,1.812,1.8068,1.8079,1.811,1.8127,1.8139,1.8135,1.7925,0,0,0,0,0,1.7767,1.7818,1.7834,1.7914,1.7929,1.7931,1.7958,1.7948,1.7975,1.7986,1.7998,1.8025,1.8069,1.8098,1.814,1.8234,1.8238,1.8277,1.829,1.83,1.831,1.8358,1.8375,1.8194,1.8194,1.8194,0,0,1.7818,1.7837,1.7869,1.7927,1.7947,1.7998,1.7941,1.7998,1.8035,1.7994,1.8066,1.8076,1.8104,1.8189,1.8227,1.82,1.8361,1.831,1.8319,1.8322,1.8368,1.8385,1.84,1.8199,1.8198,1.8197,0,0,1.7936,1.7957,1.8024,1.8045,1.8076,1.8076,1.8093,1.8117,1.8122,1.8194,1.8164,1.8207,1.8284,1.8305,1.8325,1.8449,1.8423,1.8463,1.853,1.8577,1.8591,1.8604,1.8646,1.8662,1.8472,1.8473,1.8473,0,1.7996,1.8073,1.8062,1.812,1.8145,1.8111,1.8179,1.8199,1.8241,1.8259,1.8229,1.8323,1.834,1.8428,1.8458,1.8476,1.8493,1.846,1.8591,1.8603,1.8614,1.8655,1.8671,1.8477,1.8477,1.8476,1.8476,0,1.8143,1.8196,1.8247,1.8289,1.832,1.8383,1.8379,1.8411,1.8398,1.8401,1.8473,1.8492,1.8536,1.8556,1.8544,1.8641,1.8624,1.8593,1.8539,1.8636,1.8674,1.8689,1.8484,1.8482,1.8481,1.8479,0,0,1.8303,1.8337,1.8356,1.8373,1.8404,1.8444,1.8504,1.8547,1.8574,1.8604,1.8652,1.8717,1.8688,1.8711,1.8701,1.8743,1.8837,1.8706,1.8706,1.8728,1.8943,1.8966,1.8984,1.882,1.8823,1.8825,1.894,0,1.8422,1.8528,1.8518,1.8617,1.8665,1.8633,1.8684,1.8707,1.8711,1.8751,1.8754,1.88,1.8759,1.8772,1.8812,1.8817,1.888,1.8809,1.8863,1.8865,1.8857,1.9004,1.9028,1.9136,1.8955,1.8957,1.8959,0,1.8575,1.861,1.8715,1.8735,1.8755,1.8802,1.8839,1.8879,1.8903,1.8903,1.8928,1.891,1.8968,1.8913,1.8992,1.8944,1.8965,1.8971,1.8974,1.8979,1.8918,1.9011,1.917,1.9186,1.8982,1.8981,1.8979,0,1.868,1.8753,1.8824,1.884,1.8867,1.89,1.8913,1.8934,1.896,1.8992,1.9008,1.9047,1.9068,1.9097,1.9089,1.905,1.9168,1.9114,1.9168,1.9168,1.9194,1.9192,1.9358,1.921,1.9209,1.9209,1.9209,0,1.8813,1.8877,1.8871,1.8915,1.8985,1.8973,1.9042,1.905,1.9069,1.9112,1.9086,1.9127,1.9114,1.9154,1.9147,1.9212,1.9222,1.9222,1.9219,1.9224,1.9224,1.9237,1.9229,1.9213,1.9212,1.9212,1.9211,0,1.8942,1.8941,1.9016,1.9034,1.904,1.9091,1.9106,1.9146,1.9147,1.9202,1.9214,1.9215,1.926,1.9255,1.9305,1.9301,1.938,1.9369,1.9373,1.937,1.9424,1.9418,1.9603,1.9626,1.9464,1.9466,1.9467,0,1.9026,1.9075,1.9099,1.9126,1.9141,1.9185,1.9211,1.92,1.9228,1.9258,1.9294,1.9337,1.937,1.9443,1.9447,1.9485,1.9474,1.9536,1.9479,1.9481,1.9473,1.947,1.9473,1.9547,1.9549,1.955,1.9551,0,1.9176,1.9173,1.9212,1.925,1.9282,1.9311,1.9338,1.9362,1.9352,1.9385,1.943,1.9456,1.9507,1.9549,1.9584,1.9595,1.9571,1.9569,1.9583,1.9588,1.9587,1.9587,1.9402,1.9565,1.9564,1.9563,1.9562,1.9561,1.9284,1.9325,1.9348,1.9392,1.941,1.9435,1.9473,1.9479,1.9517,1.9558,1.9548,1.96,1.962,1.9665,1.9679,1.9718,1.9695,1.9716,1.9721,1.9726,1.9732,1.9582,1.9724,1.9724,1.9723,1.9723,1.9723,0,1.9431,1.9444,1.9484,1.9522,1.9556,1.9531,1.9559,1.9588,1.9634,1.9656,1.9689,1.974,1.978,1.9787,1.9825,1.9854,1.9844,1.9864,1.9861,1.9864,1.9751,1.9734,1.9872,1.9872,1.9871,1.9871,1.9871,1.9871,1.9512,1.9579,1.9578,1.9653,1.9665,1.9716,1.9733,1.9755,1.9772,1.9831,1.9864,1.9869,1.9884,1.9922,1.9957,1.9957,1.9972,1.9996,1.9992,1.9887,1.9872,1.9858,1.9842,1.9999,2.0,2.0102,2.0103,2.0103]}]]